This is the latest recevied weather packets stored in our database for station/object WE0DX-1. If no packets are shown the sender has not sent any weather packets the latest 10 day(s).
| Time | Temp. | Humidity | Pressure | Rain* | Wind** | Luminosity | Snow |
|---|---|---|---|---|---|---|---|
| 1777158765 | 22.78° C | 55% | 1007.9 hPa | 0 mm | - | 69 W/m² | - |
| 1777158464 | 22.78° C | 55% | 1008 hPa | 0 mm | - | 57 W/m² | - |
| 1777158160 | 22.78° C | 54% | 1008.2 hPa | 0 mm | - | 45 W/m² | - |
| 1777157856 | 23.33° C | 55% | 1008.2 hPa | 0 mm | - | 42 W/m² | - |
| 1777157552 | 23.33° C | 53% | 1008.4 hPa | 0 mm | - | 38 W/m² | - |
| 1777157248 | 23.33° C | 54% | 1008.1 hPa | 0 mm | - | 45 W/m² | - |
| 1777156948 | 23.33° C | 55% | 1008.4 hPa | 0 mm | - | 55 W/m² | - |
| 1777156643 | 23.33° C | 54% | 1008.5 hPa | 0 mm | - | 54 W/m² | - |
| 1777156340 | 23.33° C | 53% | 1008.4 hPa | 0 mm | - | 54 W/m² | - |
| 1777156036 | 23.33° C | 52% | 1008.4 hPa | 0 mm | - | 69 W/m² | - |
| 1777155733 | 23.89° C | 53% | 1008.7 hPa | 0 mm | - | 85 W/m² | - |
| 1777155429 | 23.33° C | 51% | 1008.6 hPa | 0 mm | - | 90 W/m² | - |
| 1777155126 | 23.89° C | 51% | 1008.5 hPa | 0 mm | - | 89 W/m² | - |
| 1777154823 | 23.89° C | 50% | 1008.5 hPa | 0 mm | - | 85 W/m² | - |
| 1777154519 | 23.89° C | 51% | 1008.6 hPa | 0 mm | - | 77 W/m² | - |
| 1777154215 | 23.89° C | 50% | 1008.5 hPa | 0 mm | - | 79 W/m² | - |
| 1777153911 | 23.89° C | 50% | 1008.6 hPa | 0 mm | - | 95 W/m² | - |
| 1777153607 | 23.89° C | 49% | 1008.5 hPa | 0 mm | - | 100 W/m² | - |
| 1777153303 | 23.89° C | 49% | 1008.5 hPa | 0 mm | - | 104 W/m² | - |
| 1777153000 | 23.89° C | 48% | 1008.6 hPa | 0 mm | - | 118 W/m² | - |
| 1777152697 | 24.44° C | 47% | 1008.6 hPa | 0 mm | - | 142 W/m² | - |
| 1777152393 | 24.44° C | 48% | 1008.6 hPa | 0 mm | - | 154 W/m² | - |
| 1777152089 | 24.44° C | 48% | 1008.5 hPa | 0 mm | - | 161 W/m² | - |
| 1777151785 | 24.44° C | 49% | 1008.5 hPa | 0 mm | - | 169 W/m² | - |
| 1777151481 | 24.44° C | 46% | 1008.4 hPa | 0 mm | - | 176 W/m² | - |
* Rain latest hour (hover to see other rain measurements)
** Current wind speed in m/s (hover to see current wind gust speed)